[Date Prev][Date Next][Thread Prev][Thread Next] - [Date Index][Thread Index][Author Index]

2 Line ISS Keps 9-5



ISS
1 25544U 98067A   05247.96166413  .00026491  00000-0  19769-3 0  2893
2 25544 051.6426 212.4783 0001760 030.6378 074.2638 15.72541630388232
----
Via the sarex mailing list at AMSAT.ORG courtesy of AMSAT-NA.
To unsubscribe, send "unsubscribe sarex" to Majordomo@amsat.org



AMSAT Top AMSAT Home